Location: Rancho Del Sol Observatory
(38.7214°N, 120.6350°W)
Time: 19:26:43
(UTC-08:00)

A-11 Canister half - Pass Details

Date: 02 February 2020
Orbit: 1517 x 1683 km, 47.2° (Epoch: 17 February)

Event Time Altitude Azimuth Distance (km) Brightness Sun altitude
Rises 23:14:08 0° 269° (W) 4,769 11.8 -64.1°
Enters shadow 23:14:59 - 271° (W) 4,507 11.6 -64.2°
Reaches altitude 10° 23:17:24 10° 275° (W) 3,763 - -64.4°
Maximum altitude 23:26:37 53° 351° (N) 1,829 - -65.4°
Drops below altitude 10° 23:35:39 10° 67° (ENE) 3,682 - -66.2°
Sets 23:38:49 0° 72° (ENE) 4,660 - -66.5°
